Startseite
Über Mich
AHP4
Galerie
Sehschlangen
Tourenbuch
Bookmarks
Elektronik
Bewertung
Geschichten
[Tagesmessung] [Jahreswerte] [Information]

Messwerte vom 31.03.2022

Die letzten Messwerte von 23:58:46 Uhr:
KategorieMesswert
Temperatur [°C]3
Luftdruck [mBar]987
Sonneneinstrahlung0
Wind [km/h]11 aus Ost
Niederschlag [l/m²]0
rel.Luftfeucht.54%
CO2 [ppm]463

Diagramme
Messwerte vom 31.03.2022
Tagesaggregation
KategorieMinimumMaximumSchnittSumme
Temperatur [°C]173.8646
Luftdruck [mBar]985988986.8333
Sonneneinstrahlung228100.9229
Wind [km/h]19
rF [%]37.493.665.3
Niederschlag [l/m²]0
CO2 [ppm]404634491.2
Einordnung alsKalter Tag

Messungen an benachbarten Tagen: Zur Jahresaggregation 2022
Tabelle aller Messwerte
UhrzeitTemperatur [°C]Luftdruck [mBar]SonneWind [km/h]RichtungRegen [l/m²]rF [%]CO2 [ppm]
00:01:47 4 987 0 2 O 0 77.4 489
00:04:47 4 987 0 2 O 0 77.3 492
00:07:47 4 987 0 1 NO 0 77.3 489
00:10:46 4 987 0 3 O 0 77.2 492
00:13:47 4 987 0 2 O 0 77.2 480
00:16:45 4 987 0 1 O 0 77.3 477
00:19:50 4 988 0 2 N 0 77.3 480
00:22:44 4 987 0 1 O 0 77.2 480
00:25:44 4 987 0 1 SO 0 77.2 491
00:28:46 4 987 0 1 NO 0 77.1 483
00:31:43 4 987 0 0 O 0 77.2 477
00:34:46 3 987 0 0 NO 0 77.1 476
00:37:45 3 987 0 1 O 0 76.9 483
00:40:45 3 987 0 2 O 0 76.7 489
00:43:45 3 987 0 1 O 0 76.7 488
00:46:46 3 987 0 2 NO 0 76.8 477
00:49:46 3 987 0 4 O 0 76.9 475
00:52:45 3 987 0 1 O 0 77 477
00:55:44 3 987 0 2 O 0 77 474
00:58:46 3 987 0 2 O 0 77.1 471
01:01:49 3 988 0 1 NO 0 76.9 469
01:04:46 3 987 0 0 N 0 76.8 469
01:07:45 3 987 0 0 O 0 77 472
01:10:46 3 987 0 0 O 0 77.2 472
01:13:46 3 987 0 1 O 0 77.9 475
01:16:47 3 987 0 0 O 0 77.6 468
01:19:45 3 987 0 2 O 0 77.4 469
01:22:45 3 987 0 0 SO 0 76.6 465
01:25:43 3 987 0 0 NO 0 76.5 471
01:28:45 3 987 0 2 O 0 76.1 466
01:31:45 3 987 0 0 O 0 75.5 474
01:34:46 3 987 0 0 NO 0 75.4 480
01:37:46 3 988 0 1 N 0 75.1 483
01:40:47 3 987 0 0 O 0 74.8 476
01:43:45 3 987 0 0 O 0 74.7 474
01:46:45 3 987 0 0 O 0 74.7 471
01:49:46 3 987 0 1 SO 0 74.6 474
01:52:46 3 987 0 1 N 0 74.5 465
01:55:46 3 987 0 1 NO 0 74.6 460
01:58:45 3 987 0 0 O 0 74.7 465
02:01:47 3 987 0 1 NO 0 74.7 468
02:04:48 3 987 0 2 O 0 74.8 469
02:07:45 3 987 0 4 S 0 75.1 471
02:10:48 3 987 0 0 SO 0 75.1 465
02:13:49 3 987 0 0 NW 0 75.3 468
02:16:46 3 987 0 0 O 0 75.4 459
02:19:45 3 987 0 0 O 0 75.5 460
02:22:45 2 987 0 0 O 0 75.6 468
02:25:46 2 987 0 0 O 0 76 472
02:28:46 2 987 0 0 O 0 76.3 471
02:31:46 2 987 0 1 O 0 76.6 472
02:34:47 2 987 0 0 NO 0 76.8 465
02:37:45 2 987 0 1 O 0 76.9 465
02:40:50 2 987 0 0 NO 0 77.1 465
02:43:47 2 987 0 1 NO 0 77.3 462
02:46:46 2 987 0 1 NO 0 77.6 462
02:49:48 2 987 0 0 NO 0 78 460
02:52:46 2 987 0 0 O 0 78 460
02:55:47 2 987 0 0 O 0 78.3 454
02:58:44 2 987 0 0 0 78.2 460
03:01:46 2 987 0 0 O 0 78.6 458
03:04:45 1 987 0 0 N 0 78.9 459
03:07:46 1 987 0 0 NO 0 79.5 458
03:10:47 1 988 0 0 NO 0 80.4 457
03:13:46 1 987 0 1 NO 0 81.3 456
03:16:44 1 987 0 0 NO 0 81.4 456
03:19:46 1 987 0 0 O 0 81.5 460
03:22:47 1 987 0 1 N 0 82.2 451
03:25:46 2 987 0 1 O 0 83.2 451
03:28:46 2 987 0 0 O 0 83.7 451
03:31:46 2 987 0 0 O 0 83.6 457
03:34:45 2 987 0 0 N 0 83 463
03:37:46 2 987 0 0 NO 0 82.9 465
03:40:47 1 987 0 0 NO 0 82.9 458
03:43:45 1 987 0 0 NO 0 82.9 460
03:46:45 1 987 0 0 NO 0 84 456
03:49:48 1 987 0 0 NO 0 84.5 454
03:52:46 1 987 0 0 NO 0 85.1 457
03:55:47 1 987 0 0 NO 0 85.6 456
03:58:46 1 987 0 0 NO 0 86.3 457
04:01:47 1 987 0 1 NO 0 88.5 460
04:04:46 1 987 0 2 O 0 90.4 460
04:07:45 1 987 0 2 O 0 91.2 460
04:10:46 1 987 0 1 SO 0 91.8 458
04:13:46 1 987 0 0 O 0 92 451
04:16:45 1 987 0 1 NO 0 92 451
04:19:46 1 987 0 0 NO 0 92 451
04:22:45 1 987 0 0 O 0 91.7 457
04:25:45 1 987 0 1 NO 0 91.7 460
04:28:48 1 987 0 0 SO 0 91.4 463
04:31:45 1 987 0 0 NO 0 91.3 463
04:34:44 1 987 0 2 N 0 90.9 457
04:37:45 1 987 0 1 O 0 91.2 456
04:40:46 1 987 0 2 O 0 92.1 451
04:43:47 1 987 0 2 SO 0 92.5 452
04:46:46 1 987 0 1 0 93 442
04:49:45 1 987 0 1 S 0 93 448
04:52:45 1 987 0 2 O 0 93.6 448
04:55:47 2 987 0 3 N 0 93.5 448
04:58:46 2 987 0 2 O 0 93 448
05:01:45 2 986 0 1 N 0 92.9 438
05:04:48 2 987 0 0 SO 0 92.4 448
05:07:48 2 987 0 2 SO 0 92.4 449
05:10:45 2 987 0 1 O 0 92.7 437
05:13:45 2 987 0 2 O 0 92.9 439
05:16:45 2 987 0 1 O 0 92.7 442
05:19:47 2 987 0 3 O 0 92.5 447
05:22:48 2 987 0 1 NO 0 92.7 447
05:25:46 2 987 0 3 N 0 92.7 444
05:28:47 2 987 0 6 NO 0 92.9 446
05:31:46 2 986 0 0 SO 0 93.1 448
05:34:48 2 986 0 4 NO 0 93 443
05:37:50 2 986 0 3 SO 0 93 450
05:40:45 2 987 0 0 O 0 93 448
05:43:47 2 987 0 1 S 0 93 445
05:46:47 2 987 0 2 SO 0 93.1 448
05:49:45 2 987 0 1 O 0 92.9 436
05:52:45 2 987 0 4 NO 0 92.8 436
05:55:46 3 987 0 5 NO 0 92.5 434
05:58:48 3 987 0 2 S 0 92.3 450
06:01:45 3 987 0 2 0 92.2 451
06:04:47 3 987 0 1 O 0 91.9 448
06:07:46 3 987 0 1 NO 0 91.6 451
06:10:45 2 987 0 2 O 0 91.3 451
06:13:45 2 987 0 3 O 0 91.2 451
06:16:45 2 986 0 1 O 0 91.1 446
06:19:45 2 987 0 3 S 0 91.1 443
06:22:48 2 986 0 3 NO 0 91 445
06:25:45 2 987 0 3 N 0 91 445
06:28:46 2 987 0 3 NO 0 91 442
06:31:47 2 987 0 5 N 0 91 448
06:34:45 2 987 3 4 O 0 91 446
06:37:45 2 987 5 4 0 90.9 439
06:40:48 2 987 9 3 O 0 90.7 440
06:43:45 2 987 13 3 O 0 90.5 439
06:46:47 2 987 18 1 O 0 90.3 440
06:49:46 2 987 28 4 O 0 90 434
06:52:45 2 987 34 5 O 0 89.6 434
06:55:47 2 986 44 0 SO 0 89.2 439
06:58:46 2 987 50 3 O 0 88.7 440
07:01:48 2 987 62 3 N 0 88.3 437
07:04:47 2 987 73 4 NO 0 87.8 442
07:07:47 2 987 82 4 O 0 87.3 435
07:10:47 2 987 94 4 O 0 86.7 431
07:13:48 2 987 101 4 O 0 86.5 428
07:16:47 2 987 111 1 SO 0 85.9 428
07:19:48 2 987 119 2 SO 0 84.8 419
07:22:45 2 987 123 3 O 0 84.4 413
07:25:48 2 987 126 3 SO 0 83.8 410
07:28:46 2 987 128 8 N 0 83.4 427
07:31:46 2 987 133 3 O 0 82.9 483
07:34:47 2 987 139 7 N 0 82.4 498
07:37:45 2 987 144 9 0 81.6 483
07:40:50 2 987 147 7 NO 0 80.9 486
07:43:48 2 987 151 6 O 0 80.7 497
07:46:47 2 986 150 6 NO 0 80.5 497
07:49:45 2 987 154 3 N 0 79.8 491
07:52:47 2 987 157 8 O 0 79.8 487
07:55:46 2 987 159 8 N 0 79.5 480
07:58:47 2 988 162 4 N 0 79.1 477
08:01:46 2 987 164 9 N 0 79 475
08:04:47 2 987 165 4 SW 0 79 487
08:07:49 2 987 174 7 N 0 78.9 489
08:10:48 2 987 181 5 NO 0 78.8 489
08:13:47 2 987 183 5 S 0 78.6 483
08:16:49 2 987 186 5 NO 0 78.2 479
08:19:48 2 987 185 5 O 0 77.4 474
08:22:46 2 987 186 5 SO 0 77.5 471
08:25:50 2 987 191 5 NO 0 77.7 477
08:28:49 2 987 196 4 NO 0 77.4 483
08:31:45 2 987 202 4 O 0 77.1 487
08:34:50 2 987 206 5 NO 0 77 483
08:37:47 2 987 207 8 N 0 76.9 468
08:40:47 2 987 207 3 NO 0 76.6 452
08:43:47 3 987 208 3 O 0 76.2 450
08:46:48 3 987 210 7 O 0 75.8 451
08:49:45 3 987 210 5 O 0 75.4 451
08:52:47 3 987 210 5 SO 0 74.3 446
08:55:47 3 987 211 6 NO 0 74.7 445
08:58:48 3 987 212 4 O 0 74.4 448
09:01:48 3 987 213 7 S 0 74.4 465
09:04:47 3 987 214 11 N 0 74.2 478
09:07:47 3 987 214 3 O 0 74.1 480
09:10:46 3 987 212 3 S 0 74.2 475
09:13:46 3 987 208 1 N 0 74.4 475
09:16:49 3 987 205 2 O 0 74.3 480
09:19:46 3 987 210 5 O 0 75.1 487
09:22:49 3 987 208 6 NO 0 74.6 492
09:25:48 3 987 211 6 NO 0 74.8 480
09:28:48 3 987 210 5 N 0 74.5 487
09:31:48 3 987 213 2 O 0 73.9 480
09:34:47 3 987 212 0 W 0 73.3 486
09:37:46 3 987 210 4 O 0 73.1 484
09:40:48 3 987 207 14 NW 0 72.9 489
09:43:47 3 987 206 3 O 0 73.1 492
09:46:49 3 987 201 7 NO 0 72.9 492
09:49:49 3 987 204 4 NO 0 73 492
09:52:45 3 987 204 2 NO 0 73.4 492
09:55:46 3 987 203 1 NO 0 73.5 489
09:58:47 3 987 202 3 S 0 73.6 494
10:01:48 3 987 203 4 N 0 73.1 489
10:04:49 3 987 206 9 N 0 73 489
10:07:48 3 987 208 5 W 0 72.9 486
10:10:47 3 987 210 9 S 0 72.4 487
10:13:47 4 987 211 5 N 0 72.4 491
10:16:49 4 987 212 2 NO 0 71.9 492
10:19:46 4 987 215 8 O 0 71.5 478
10:22:48 4 987 217 3 SW 0 70.5 480
10:25:45 4 987 217 3 SO 0 70.4 484
10:28:46 4 987 216 8 0 70.2 487
10:31:46 4 987 218 1 O 0 69.9 490
10:34:47 4 987 219 3 O 0 69.7 490
10:37:46 4 987 221 2 N 0 68.9 489
10:40:46 4 987 223 5 O 0 68.4 492
10:43:48 5 987 223 11 N 0 68.6 501
10:46:46 5 987 223 3 NO 0 67.6 500
10:49:47 5 987 223 6 W 0 66.8 496
10:52:45 4 987 224 5 O 0 66.7 501
10:55:48 4 987 224 2 N 0 66.3 504
10:58:50 5 987 224 4 N 0 66.8 504
11:01:47 5 987 224 3 SO 0 66.6 495
11:04:49 5 987 224 6 SO 0 66.4 489
11:07:48 5 987 223 4 N 0 65.1 491
11:10:48 5 987 224 8 SW 0 64.2 489
11:13:48 5 987 224 4 S 0 64.3 503
11:16:46 5 987 225 5 N 0 64.7 501
11:19:49 5 987 225 8 W 0 64.7 489
11:22:48 5 987 225 3 NO 0 64.7 483
11:25:47 5 987 225 7 W 0 64.2 480
11:28:49 5 987 225 5 NO 0 63.8 480
11:31:47 5 987 225 6 SO 0 63.5 484
11:34:49 5 987 226 4 NO 0 63.3 489
11:37:46 5 987 226 3 N 0 62.7 489
11:40:46 5 987 226 4 N 0 62.4 492
11:43:47 5 987 226 5 NW 0 61.7 490
11:46:46 5 987 226 3 S 0 61.4 483
11:49:48 5 987 226 3 NO 0 62.4 478
11:52:48 6 987 226 2 S 0 62.1 474
11:55:46 6 987 225 7 W 0 62.5 478
11:58:45 6 987 225 8 S 0 60.7 474
12:01:47 6 987 226 4 NW 0 60.2 474
12:04:46 6 987 225 4 O 0 60.2 474
12:07:49 6 987 224 6 N 0 60.4 480
12:10:48 6 987 224 3 SW 0 59.9 483
12:13:49 6 987 223 7 NO 0 60.1 480
12:16:46 6 987 225 5 SW 0 60 471
12:19:48 6 987 225 4 O 0 59.8 472
12:22:47 6 987 226 7 O 0 59.7 475
12:25:48 6 987 225 8 NO 0 58.9 475
12:28:47 6 987 225 8 SO 0 59.2 474
12:31:48 6 987 227 8 NO 0 59.4 477
12:34:51 6 987 225 10 N 0 58.8 487
12:37:49 6 987 224 4 NO 0 58.5 483
12:40:49 6 987 225 3 SO 0 58.5 486
12:43:46 6 987 227 9 0 57.8 480
12:46:48 6 987 227 8 N 0 57.1 492
12:49:48 6 987 228 4 NW 0 56.4 497
12:52:49 6 987 228 11 NO 0 56.5 498
12:55:48 6 987 227 5 SO 0 55.4 497
12:58:49 6 987 227 6 NW 0 55.5 504
13:01:48 7 987 226 8 NO 0 55.9 512
13:04:48 7 987 227 11 N 0 53.2 513
13:07:48 6 987 227 4 NO 0 53.3 521
13:10:50 6 987 228 6 NO 0 54 513
13:13:47 6 987 227 6 NO 0 54 519
13:16:48 6 987 226 5 O 0 54.2 524
13:19:49 6 987 225 7 S 0 53.4 527
13:22:49 6 987 225 6 O 0 52.9 530
13:25:46 6 987 227 14 N 0 53.8 512
13:28:47 7 986 225 11 O 0 53.4 513
13:31:47 7 987 222 6 O 0 53.6 518
13:34:47 6 987 222 3 NO 0 51.7 524
13:37:46 6 987 222 8 NO 0 51.7 521
13:40:47 6 987 221 6 NW 0 51.9 521
13:43:46 6 987 221 12 O 0 51.7 524
13:46:48 6 987 222 10 N 0 52.2 527
13:49:46 6 987 222 4 N 0 52.3 527
13:52:48 6 987 223 6 NO 0 52.3 527
13:55:47 6 987 222 4 NO 0 51.8 533
13:58:47 6 987 223 3 NO 0 52.4 536
14:01:47 7 987 224 2 NW 0 51.8 541
14:04:48 7 987 223 12 O 0 52 539
14:07:49 6 987 222 6 NO 0 50.5 542
14:10:48 6 987 223 5 O 0 50.8 550
14:13:47 6 987 223 10 SO 0 50.4 553
14:16:46 6 987 222 7 0 50.5 547
14:19:47 6 987 220 9 S 0 50.6 544
14:22:46 6 987 222 2 O 0 50.4 547
14:25:46 6 987 222 5 NW 0 50.9 548
14:28:47 7 987 220 4 N 0 51.1 559
14:31:48 6 986 218 2 NW 0 50.5 568
14:34:49 6 986 217 2 O 0 49.8 579
14:37:44 6 987 211 10 N 0 49.9 579
14:40:45 6 987 210 1 0 50.5 571
14:43:47 6 987 210 3 NO 0 50.9 575
14:46:46 6 987 210 4 S 0 50.7 574
14:49:48 6 987 208 7 SO 0 51.2 585
14:52:47 6 987 205 10 N 0 51.3 585
14:55:46 6 987 204 6 W 0 50.8 589
14:58:48 6 987 204 3 NO 0 51.3 592
15:01:48 6 987 206 5 NO 0 50.7 586
15:04:47 6 987 208 7 NO 0 51.2 583
15:07:47 6 986 211 3 SO 0 51.6 579
15:10:46 6 987 211 2 O 0 51 585
15:13:47 6 987 207 3 NO 0 51 577
15:16:46 6 987 205 10 N 0 50.8 562
15:19:47 6 987 203 7 NW 0 50.6 562
15:22:47 6 987 200 7 NO 0 50.7 568
15:25:46 6 987 201 9 0 51.1 583
15:28:46 6 987 204 6 N 0 51.6 591
15:31:48 6 987 210 2 NO 0 51.6 604
15:34:46 6 986 215 5 N 0 51.6 604
15:37:47 6 986 213 4 SW 0 51.2 603
15:40:47 6 987 209 3 0 50.9 598
15:43:48 6 987 206 12 NO 0 50.7 609
15:46:48 6 987 203 7 O 0 50.6 618
15:49:48 6 987 202 3 NO 0 50.1 615
15:52:48 6 986 200 5 NO 0 50.4 612
15:55:46 6 987 201 2 O 0 50.4 607
15:58:49 6 987 201 4 SW 0 50.4 601
16:01:49 6 987 199 2 W 0 50.3 606
16:04:49 6 986 192 11 N 0 50.1 615
16:07:47 6 986 195 6 W 0 49.9 616
16:10:48 6 987 192 9 NO 0 49.6 612
16:13:46 6 986 192 8 SO 0 49.5 612
16:16:47 6 985 189 3 NO 0 49.6 613
16:19:47 6 986 190 2 O 0 50.4 614
16:22:47 6 987 187 2 O 0 50.6 613
16:25:46 6 985 184 6 N 0 51 606
16:28:47 6 986 183 8 NO 0 51.3 603
16:31:49 6 986 183 5 NO 0 51.5 604
16:34:48 6 986 183 9 NO 0 51.5 604
16:37:48 6 986 183 3 NO 0 51 630
16:40:49 6 986 181 8 O 0 50.8 618
16:43:46 6 987 179 4 NO 0 51 603
16:46:48 6 986 181 1 S 0 51.4 600
16:49:47 6 986 179 7 N 0 51.7 609
16:52:47 6 986 179 5 O 0 51.9 611
16:55:45 6 986 177 6 O 0 52.3 615
16:58:45 6 986 178 6 N 0 52.3 614
17:01:47 6 986 181 3 NW 0 52.7 618
17:04:46 6 986 184 3 S 0 52.7 620
17:07:47 6 985 186 8 SO 0 52.5 623
17:10:50 6 986 190 4 SO 0 52 625
17:13:47 6 985 192 3 N 0 51.7 623
17:16:48 6 986 190 7 SW 0 51.4 620
17:19:46 6 986 187 8 O 0 51.4 627
17:22:49 6 986 185 4 NW 0 51.5 634
17:25:46 6 986 185 6 SO 0 51.7 626
17:28:47 6 986 184 4 S 0 51.8 618
17:31:46 6 985 180 1 SO 0 51.9 606
17:34:48 6 986 177 2 O 0 52.1 612
17:37:46 6 985 172 3 NO 0 52.4 626
17:40:49 6 985 172 2 NW 0 52.5 609
17:43:46 6 986 171 10 NO 0 52.7 574
17:46:47 6 986 167 19 N 0 52.7 572
17:49:47 5 985 161 7 O 0 52.8 600
17:52:46 5 986 157 5 S 0 53.2 607
17:55:45 5 986 154 7 N 0 53.2 605
17:58:48 5 986 152 5 O 0 53.2 597
18:01:48 5 986 149 3 O 0 53.3 601
18:04:48 5 985 148 2 SO 0 53.4 601
18:07:46 5 986 146 1 O 0 53.9 600
18:10:48 5 986 144 2 SO 0 53.7 586
18:13:48 5 986 142 2 NO 0 53.6 582
18:16:48 5 986 142 4 O 0 52.9 575
18:19:47 5 986 144 3 O 0 53.2 565
18:22:49 5 986 145 6 NO 0 53.6 559
18:25:45 5 985 146 6 0 53.6 565
18:28:47 5 985 145 9 S 0 53.7 560
18:31:47 5 985 145 3 NO 0 53.7 553
18:34:45 5 986 142 4 N 0 53.7 553
18:37:47 5 986 140 8 N 0 54 554
18:40:49 5 985 134 5 S 0 53.4 550
18:43:49 5 985 128 6 NW 0 52.7 548
18:46:47 5 986 125 3 NO 0 52.3 553
18:49:48 5 987 124 3 SO 0 52.9 536
18:52:48 5 987 125 6 NW 0 52.7 533
18:55:47 5 987 119 0 S 0 52.4 533
18:58:48 5 986 115 10 NO 0 51.3 534
19:01:46 5 986 114 1 NO 0 49.9 526
19:04:49 5 986 115 5 NW 0 48.8 521
19:07:47 5 986 114 8 N 0 48.7 516
19:10:47 5 986 109 8 O 0 47.6 515
19:13:46 5 987 107 6 NO 0 47.5 515
19:16:48 5 987 101 3 NO 0 48.7 504
19:19:47 5 986 98 4 SW 0 49.3 502
19:22:45 5 987 95 8 0 49.7 506
19:25:45 5 987 83 12 W 0 51.2 506
19:28:47 4 987 77 5 O 0 52 502
19:31:47 4 986 71 7 NO 0 52.3 492
19:34:46 4 987 65 5 O 0 51.9 486
19:37:46 4 987 56 8 O 0 50.9 480
19:40:48 4 986 49 1 NO 0 51 478
19:43:47 4 987 42 9 NO 0 50.6 480
19:46:48 5 987 34 15 N 0 48.8 480
19:49:49 5 987 27 10 SO 0 48.9 485
19:52:45 5 987 22 5 O 0 49.2 471
19:55:45 5 987 14 6 N 0 49.7 464
19:58:46 5 987 9 6 O 0 50.9 463
20:01:45 4 987 5 9 O 0 51.2 466
20:04:47 4 987 4 6 SO 0 54.1 463
20:07:45 4 987 3 10 NO 0 54.5 451
20:10:53 4 987 0 6 NW 0 52.2 448
20:13:44 4 987 0 8 O 0 51.5 447
20:16:46 4 987 0 4 N 0 52.8 451
20:19:47 4 987 0 7 NO 0 54.6 446
20:22:44 4 987 0 4 N 0 55.1 442
20:25:45 4 987 0 3 SO 0 54.5 440
20:28:47 4 987 0 3 O 0 51.8 436
20:31:47 4 987 0 2 NW 0 51.6 433
20:34:46 4 987 0 1 O 0 51.1 425
20:37:48 4 987 0 4 SO 0 50.6 424
20:40:48 4 987 0 4 NO 0 50 424
20:43:47 4 987 0 0 NW 0 50 431
20:46:48 4 987 0 9 NO 0 49.8 422
20:49:45 4 987 0 7 N 0 46 427
20:52:45 4 987 0 12 N 0 45.6 425
20:55:45 4 987 0 6 NW 0 44.8 431
20:58:46 4 987 0 1 NO 0 45.2 425
21:01:43 4 987 0 8 N 0 44.6 415
21:04:50 4 987 0 7 SO 0 43.2 413
21:07:45 5 987 0 2 N 0 42.8 410
21:10:45 5 987 0 8 O 0 42.1 410
21:13:46 4 987 0 6 NO 0 42.2 407
21:16:46 4 987 0 7 N 0 44.5 410
21:19:50 4 987 0 4 NO 0 43.8 407
21:22:46 4 987 0 10 NO 0 43.2 404
21:25:45 4 987 0 8 NO 0 42.4 404
21:28:48 4 987 0 9 NO 0 42.2 407
21:31:49 4 988 0 4 NW 0 40.9 404
21:34:45 4 987 0 5 S 0 40.6 405
21:37:44 4 987 0 6 NO 0 40 404
21:40:46 4 987 0 7 S 0 39.2 407
21:43:47 4 987 0 2 NO 0 38.3 404
21:46:45 4 987 0 3 NO 0 38.3 404
21:49:44 4 987 0 2 N 0 38.4 404
21:52:44 4 987 0 4 N 0 38.3 407
21:55:45 4 987 0 5 N 0 38.1 404
21:58:46 4 987 0 6 O 0 37.9 404
22:01:46 4 987 0 10 N 0 37.8 409
22:04:45 4 987 0 2 NO 0 37.4 410
22:07:47 4 987 0 8 W 0 37.5 418
22:10:48 4 987 0 7 SO 0 40.9 427
22:13:44 4 987 0 9 N 0 42.4 428
22:16:45 4 988 0 5 NW 0 44.3 430
22:19:48 4 987 0 3 NO 0 46.4 421
22:22:45 4 987 0 6 N 0 47.2 421
22:25:46 4 987 0 4 W 0 47.9 430
22:28:46 4 987 0 7 O 0 48.5 434
22:31:47 4 987 0 10 SO 0 49.2 439
22:34:49 4 987 0 19 NO 0 49.7 436
22:37:48 4 987 0 8 NW 0 49.9 439
22:40:44 4 987 0 9 W 0 50.1 447
22:43:45 4 987 0 7 N 0 51.1 451
22:46:44 4 987 0 7 N 0 51.4 451
22:49:46 3 987 0 4 N 0 52.1 454
22:52:48 3 987 0 5 N 0 52.1 454
22:55:48 3 987 0 4 N 0 52.2 456
22:58:47 3 987 0 6 NW 0 52.3 460
23:01:47 3 987 0 9 NO 0 52.7 462
23:04:47 3 987 0 9 N 0 52.8 463
23:07:45 3 987 0 5 N 0 53 460
23:10:46 3 987 0 4 W 0 52.9 463
23:13:46 3 987 0 4 NO 0 53 464
23:16:45 3 987 0 4 NO 0 53 466
23:19:44 3 988 0 3 N 0 53.3 471
23:22:46 3 987 0 3 0 53.4 468
23:25:47 3 987 0 6 SO 0 53.3 468
23:28:44 3 987 0 3 W 0 53.4 471
23:31:44 3 987 0 4 O 0 53.5 465
23:34:46 3 987 0 3 N 0 53.6 457
23:37:48 3 987 0 10 NW 0 53.9 457
23:40:46 3 987 0 6 O 0 53.8 459
23:43:45 3 987 0 1 O 0 54.1 459
23:46:46 3 987 0 9 NO 0 54.1 457
23:49:45 3 987 0 2 S 0 54.3 460
23:52:47 3 988 0 12 NW 0 54.1 458
23:55:49 3 987 0 9 NO 0 53.7 463
23:58:46 3 987 0 11 O 0 54 463

Letzte Änderung : 22-Jul-2022
Copyright Jens Köhler, Wolfsburg, Obere Dorfstraße 10d